Location: Chochol
(49.7771°N, 14.9780°E)
Time: 08:22:38
(UTC+00:00)

Meteor 1-27 - Pass Details

Date: 09 April 2020
Orbit: 837 x 893 km, 81.3° (Epoch: 01 June)

Event Time Altitude Azimuth Distance (km) Brightness Sun altitude
Exits shadow 21:05:16 58° 79° (E) 1,032 4.4 -26.9°
Drops below altitude 10° 21:10:39 10° 18° (NNE) 2,573 7.2 -27.4°
Sets 21:13:09 0° 15° (NNE) 3,519 8.0 -27.6°
